Flag for Germany Weather past 2 weeks in Ingelheim am Rhein, Rhineland-Palatinate, Germany

Now
43 °F

Light rain. Overcast.


Feels Like: 35 °F
Forecast: 35 / 44 °F
Wind: 16 mph from West

Location: Wiesbaden Airport

Current Time: Mar 3, 2015 at 10:08:11 PM

Latest Report: Mar 3, 2015 at 8:58 PM


Visibility: N/A

Pressure: 30.10 "Hg

Humidity: 76%

Dew point: 36 °F

Location of Ingelheim am RheinLocation

Historic Weather in Ingelheim am Rhein — Graph

°F

Ingelheim am Rhein temperature yesterday

Maximum temperature yesterday: 50 °F (at 1:58 PM)
Minimum temperature yesterday: 36 °F (at 10:58 PM)
Average temperature yesterday: 44 °F

Past Weeks' High & Low Weather Summary

 TemperatureHumidityPressure
High52 °F (Feb 20, 1:58 PM)100% (Feb 22, 5:58 AM)30.78 "Hg (Feb 22, 5:58 AM)
Low29 °F (Feb 28, 6:58 AM)43% (Mar 2, 3:58 PM)29.47 "Hg (Feb 21, 6:58 AM)
Average39 °F82%30.01 "Hg
* Reported Feb 16 7:58 PM — Mar 3 7:58 PM, Ingelheim am Rhein, Weather by CustomWeather, © 2015

Note: Actual official high and low records may vary slightly from our data, if they occured in-between our weather recording intervals... More about our weather records

Advertising

Ingelheim am Rhein weather history for previous 24 hours

 ConditionsComfort  
Time TempWeatherWind HumidityBarometerVisibility
7:58 PM
Tue, Mar 3
46 °FMostly cloudy.13 mph57%30.05 "HgN/A
6:58 PM48 °FMostly cloudy.13 mph54%30.05 "HgN/A
5:59 PM48 °FScattered clouds.13 mph54%30.03 "HgN/A
4:58 PM52 °FMostly cloudy.17 mph47%30.05 "HgN/A
3:58 PM50 °FPartly sunny.21 mph54%30.06 "HgN/A
3:01 PM50 °FPartly sunny.20 mph54%30.06 "HgN/A
1:58 PM48 °FPartly sunny.15 mph57%30.11 "HgN/A
12:58 PM48 °FBroken clouds.15 mph58%30.14 "HgN/A
11:58 AM46 °FPassing clouds.13 mph63%30.17 "HgN/A
10:58 AM43 °FPassing clouds.14 mph71%30.18 "HgN/A
9:58 AM40 °FSunny.7 mph75%30.19 "HgN/A
8:58 AM38 °FSunny.2 mph77%30.19 "HgN/A
7:58 AM32 °FPartly sunny.No wind87%30.17 "HgN/A
6:58 AM33 °FPassing clouds.2 mph85%30.16 "HgN/A
5:58 AM33 °FClear.3 mph84%30.16 "HgN/A
4:58 AM33 °FClear.5 mph82%30.15 "HgN/A
3:58 AM34 °FClear.8 mph82%30.14 "HgN/A
2:58 AM34 °FClear.2 mph81%30.13 "HgN/A
1:58 AM36 °FPassing clouds.9 mph87%30.05 "HgN/A
12:58 AM35 °FLight freezing rain. Mostly cloudy.21 mph88%30.02 "HgN/A
11:58 PM
Mon, Mar 2
36 °FClear.5 mph81%29.98 "HgN/A
10:58 PM36 °FClear.8 mph87%29.95 "HgN/A
Weather by CustomWeather, © 2015

See weather overviewHow to use our weather pages